Miscellaneous Local Product
Issued by NWS Hastings, NE

Home | Current Version | Previous Version | Graphics & Text | Print | Product List | Glossary On
Versions: 1 2 3 4 5 6 7 8 9 10 11 12 13 14 15 16 17 18 19 20 21 22 23 24 25 26 27 28 29 30 31 32 33 34 35 36 37 38 39 40 41 42 43 44 45 46 47 48 49 50
000
AXUS43 KGID 241902
MISGRI

GID CWA HOURLY WEATHER ROUNDUP
NATIONAL WEATHER SERVICE HASTINGS NE
100 PM CST WED DEC 24 2014

NOTE: "FAIR" INDICATES FEW OR NO CLOUDS BELOW 12,000 FEET WITH NO
SIGNIFICANT WEATHER AND/OR OBSTRUCTIONS TO VISIBILITY.

...SOUTH CENTRAL NEBRASKA...

CITY           SKY/WX    TMP DP  RH WIND       PRES   REMARKS
GRAND ISLAND   SUNNY     36  23  59 W9        29.81F WCI  29
HASTINGS       SUNNY     36  23  59 W12       29.81F WCI  28
KEARNEY        SUNNY     36  19  51 W10       29.81F WCI  28
ORD            SUNNY     33  21  61 W7        29.76F WCI  27
YORK           CLOUDY    30  27  86 NW7       29.83F WCI  23
AURORA         SUNNY     34  27  75 W7        29.82F WCI  28
LEXINGTON      SUNNY     37  23  57 W8        29.79F WCI  31
HOLDREGE       SUNNY     35  22  59 W9        29.82F WCI  28
HEBRON         CLOUDY    32  26  81 W6        29.86F WCI  26

...NEBRASKA PANHANDLE...

CITY           SKY/WX    TMP DP  RH WIND       PRES   REMARKS
CHADRON        CLOUDY    35  25  66 CALM      29.67F
ALLIANCE       SUNNY     39  21  48 W15       29.66F WCI  31
SCOTTSBLUFF    SUNNY     31  22  69 E5        29.69F WCI  26
SIDNEY         SUNNY     34  21  59 SW14      29.72F WCI  25

...WESTERN AND NORTH CENTRAL NEBRASKA...

CITY           SKY/WX    TMP DP  RH WIND       PRES   REMARKS
VALENTINE      SUNNY     34  19  54 SW12      29.66F WCI  25
AINSWORTH      SUNNY     32  22  66 S9        29.70F WCI  24
ONEILL         SUNNY     29  24  83 S7        29.74F WCI  22
BROKEN BOW     SUNNY     34  22  61 S6        29.75F WCI  29
IMPERIAL       SUNNY     37  18  46 SW13      29.76F WCI  29
NORTH PLATTE   SUNNY     40  18  41 W10       29.76F WCI  33
MCCOOK         SUNNY     37  18  46 SW7       29.80F WCI  32

...EASTERN NEBRASKA...

CITY           SKY/WX    TMP DP  RH WIND       PRES   REMARKS
NORFOLK        CLOUDY    28  24  85 NW10      29.78F WCI  19
SO SIOUX CITY  CLOUDY    29  26  89 W10       29.79F WCI  20
TEKAMAH        CLOUDY    30  27  88 W13       29.81F WCI  20
COLUMBUS       CLOUDY    28  21  74 NW6       29.81F WCI  22
ALBION         MOSUNNY   31  25  77 W5        29.80F WCI  26
OMAHA EPPLEY   CLOUDY    31  28  89 NW12      29.83F WCI  22
MILLARD        CLOUDY    31  28  87 NW13      29.83F WCI  22
LINCOLN        CLOUDY    30  25  81 W10       29.84F WCI  21
NEBRASKA CITY  CLOUDY    32  31  98 NW10G16   29.82F WCI  24
BEATRICE       CLOUDY    30  27  89 W9        29.85F WCI  22
FALLS CITY     CLOUDY    34  29  82 W14       29.83F WCI  25

...NORTHERN KANSAS...

CITY           SKY/WX    TMP DP  RH WIND       PRES   REMARKS
GOODLAND       SUNNY     37  17  44 SW18      29.81F WCI  27
HILL CITY      SUNNY     40  20  44 W9        29.86F WCI  34
NORTON         CLEAR     37  19  48 SW9       29.82F WCI  31
PHILLIPSBURG   SUNNY     43  25  49 W9        29.86F
SMITH CENTER   SUNNY     37  23  56 W14       29.86F WCI  29
BELOIT         SUNNY     39  27  60 W10       29.86F WCI  32
HAYS           SUNNY     41  18  38 NW16      29.89F
RUSSELL        SUNNY     39  24  55 W13       29.87F WCI  31
CONCORDIA      CLOUDY    34  29  82 W12       29.86F WCI  25
SALINA         CLOUDY    36  29  75 W12       29.89F WCI  28
TOPEKA         CLOUDY    37  31  78 W12       29.87F WCI  29



USA.gov is the U.S. government's official web portal to all federal, state and local government web resources and services.